Location: Rostock
(54.0884°N, 12.1234°E)
Time: 15:26:00
(UTC+01:00)

ISS - Pass Details

Date: 13 January 2018
Orbit: 402 x 407 km, 51.6° (Epoch: 21 January)

Event Time Altitude Azimuth Distance (km) Brightness Sun altitude
Exits shadow 05:33:42 17° 158° (SSE) 1,114 -1.4 -24.0°
Drops below altitude 10° 05:34:46 10° 145° (SE) 1,464 -0.5 -23.8°
Sets 05:37:01 0° 133° (SE) 2,322 0.8 -23.5°
